Regional Weather Roundup
Issued by NWS Sioux Falls, SD

Home | Current Version | Previous Version | Text Only | Print | Product List | Glossary On
Versions: 1 2 3 4 5 6 7 8 9 10 11 12 13 14 15 16 17 18 19 20 21 22 23 24 25 26 27 28 29 30 31 32 33 34 35 36 37 38 39 40 41 42 43 44 45 46 47 48 49 50
000
ASUS43 KFSD 290510
RWRFSD

WEATHER ROUNDUP FOR SE SOUTH DAKOTA/SW MINNESOTA/NW IOWA
NATIONAL WEATHER SERVICE SIOUX FALLS SD
1200 AM CDT MON AUG 29 2016

NOTE: "FAIR" INDICATES FEW OR NO CLOUDS BELOW 12,000 FEET WITH NO
SIGNIFICANT WEATHER AND OR OBSTRUCTIONS TO VISIBILITY.


SDZ038>040-050-052>070-290600-
SOUTHEAST SOUTH DAKOTA

CITY           SKY/WX    TMP DP  RH WIND       PRES   REMARKS
BROOKINGS        N/A    N/A N/A N/A MISG        N/A
CHAMBERLAIN    CLEAR     79  65  61 S13       30.04R
HURON          CLEAR     77  69  76 S10       30.02R
MADISON        LGT RAIN  72  72 100 S14       30.09S
MITCHELL       CLEAR     78  71  79 S13       30.05S
SIOUX FALLS    PTCLDY    76  65  68 S14       30.10R
WINNER         FAIR      79  63  57 S18G28    30.05S
YANKTON        CLEAR     73  64  73 S9        30.07F
$$

MNZ071-072-080-081-089-090-097-098-290600-
SOUTHWEST MINNESOTA

CITY           SKY/WX    TMP DP  RH WIND       PRES   REMARKS
FAIRMONT       PTCLDY    70  67  90 S6        30.14R
JACKSON          N/A     70  63  78 S9        30.14S
LUVERNE        CLEAR     66  63  88 S6        30.11F
MARSHALL       CLEAR     75  71  87 S13       30.08R
MONTEVIDEO     CLEAR     73  72  94 S9        30.08S
REDWOOD FALLS  CLEAR     73  68  84 S10       30.09R
TRACY          CLEAR     74  70  87 SW9       30.10S
WINDOM         PTCLDY    72  66  83 S6        30.12S
WORTHINGTON    CLEAR     69  66  90 S8        30.13S
$$

IAZ001>003-012>014-020>022-031-032-NEZ013-014-SDZ071-290600-
NORTHWEST IOWA

CITY           SKY/WX    TMP DP  RH WIND       PRES   REMARKS
CHEROKEE       PTCLDY    66  65  96 S6        30.14F
DENISON        PTCLDY    64  64 100 E3        30.15R
ESTHERVILLE    CLEAR     66  65  96 S6        30.14S
LE MARS        CLEAR     70  64  83 SE12      30.13S
ORANGE CITY    CLEAR     70  64  83 S5        30.14S
SHELDON        CLEAR     68  66  94 S8        30.12S
SIOUX CITY     CLEAR     69  65  86 SE9       30.12S
SPENCER        PTCLDY    66  63  90 SE7       30.15R
STORM LAKE     PTCLDY    66  64  94 S8        30.16S
$$

ABBREVIATIONS USED IN REMARKS
   TC - TEMPERATURE IN CELSIUS
  WCI - WIND CHILL INDEX
   HX - HEAT INDEX
  VSB - VISIBILITY




USA.gov is the U.S. government's official web portal to all federal, state and local government web resources and services.